Weather Roundup
Issued by NWS Chicago, IL

Home |  Current Version |  Previous Version |  Text Only |  Print | Product List |  Glossary On
Versions: 1 2 3 4 5 6 7 8 9 10 11 12 13 14 15 16 17 18 19 20 21 22 23 24 25 26 27 28 29 30 31 32 33 34 35 36 37 38 39 40 41 42 43 44 45 46 47 48 49 50
811
NZUS59 KLOT 200611
HRRLOT

CHICAGO AREA WEATHER ROUNDUP
NATIONAL WEATHER SERVICE CHICAGO/ROMEOVILLE IL
100 AM CDT MON MAY 20 2024

NOTE: "FAIR" INDICATES FEW OR NO CLOUDS BELOW 12,000 FEET WITH NO
SIGNIFICANT WEATHER AND/OR OBSTRUCTIONS TO VISIBILITY.

* THESE STATIONS ARE NOT UNDER NWS QUALITY CONTROL. THEY ALSO MAY NOT
  REPORT WEATHER SUCH AS PRECIPITATION OR FOG.

ILZ005-006-012>014-019>023-200700-
NORTHEAST ILLINOIS

CITY           SKY/WX    TMP DP  RH WIND       PRES   REMARKS
OHARE          MOCLDY    63  42  46 E5        29.96R
6HR MIN TEMP:  62; 6HR MAX TEMP:  70;

MIDWAY         MOCLDY    64  45  49 NE5       29.95R
6HR MIN TEMP:  63; 6HR MAX TEMP:  70;

AURORA         MOCLDY    61  45  55 NE7       29.94S
6HR MIN TEMP:  61; 6HR MAX TEMP:  75;

LANSING*       PTCLDY    60  50  69 N3        29.95S
JOLIET*        MOCLDY    64  46  51 NE5       29.95R
WAUKEGAN       MOCLDY    57  45  64 CALM      29.94S
6HR MIN TEMP:  53; 6HR MAX TEMP:  65;

DUPAGE AIRPORT MOCLDY    60  44  55 SE5       29.95R
6HR MIN TEMP:  60; 6HR MAX TEMP:  71;

WHEELING       MOCLDY    60  48  64 CALM      29.97R
6HR MIN TEMP:  56; 6HR MAX TEMP:  66;

KANKAKEE*      MOCLDY    64  48  56 E5        29.95S
MORRIS*        MOCLDY    63  49  61 NE3       29.93F
LEWIS AIRPORT* MOCLDY    61  48  63 NE8       29.96S
NORTHERLY ISL*   N/A     60  45  57 N2          N/A
$$

WIZ051-052-058>065-066-070>072-200700-
SOUTHEAST WISCONSIN

CITY           SKY/WX    TMP DP  RH WIND       PRES   REMARKS
MILWAUKEE      CLOUDY    62  35  36 SW3       29.95S
6HR MIN TEMP:  56; 6HR MAX TEMP:  66;

KENOSHA*       MOCLDY    58  44  60 CALM      29.96R
RACINE*        MOCLDY    57  44  62 VRB5      29.98R
BURLINGTON     MOCLDY    56  44  64 NE3       29.96F
WAUKESHA       MOCLDY    55  36  47 CALM      29.97F
WEST BEND      MOCLDY    55  41  58 S3        29.97S
$$

INZ001>003-010>013-019-020-200700-
NORTHWEST INDIANA

CITY           SKY/WX    TMP DP  RH WIND       PRES   REMARKS
GARY*          CLOUDY    59  59 100 CALM      29.95R
MICHIGAN CITY* NOT AVBL
RENSSELAER*    NOT AVBL
VALPARAISO     PTCLDY    61  47  59 CALM      29.95S
$$

LMZ740>746-200700-
SOUTHERN LAKE MICHIGAN

STATION/POSITION TIME  SKY/WX   TEMP WIND        PRES    VSBY
                                AIR  DIR/SP/G
                 (UTC)          (F)  (DEG/KT/KT) (MB)    (MI)
HARRISON CRIB    0540            65  330/  2/  2   N/A
NORTHERLY ISL    0600            61  330/  1/  4   N/A
CALUMET HARBOR   0524            61   30/  3/  4 1013.3
BURNS HARBOR     0540            62   50/  3/  3 1014.6F
MICHIGAN CITY    0540            63  220/  2/  3 1013.1F
$$

ABBREVIATIONS USED IN REMARKS
   TC - TEMPERATURE IN CELSIUS
  WCI - WIND CHILL INDEX
   HX - HEAT INDEX
  VSB - VISIBILITY
$$